Flag for India Weather past 2 weeks in Karaikudi, Tamil Nadu, India

Now
99 °F

Scattered clouds.


Feels Like: 110 °F
Forecast: 82 / 100 °F
Wind: 5 mph from South

Location: Tiruchchirapalli


UV Index: 10 (Very high)

Visibility: 3 mi


Pressure: 29.83 "Hg

Humidity: 44%

Dew point: 73 °F

Location of KaraikudiLocation

Historic Weather in Karaikudi

°F

Karaikudi temperature yesterday

Maximum temperature yesterday: 100 °F (at 2:40 PM)
Minimum temperature yesterday: 79 °F (at 5:40 AM)
Average temperature yesterday: 91 °F

Past Weeks' High & Low Weather Summary

 TemperatureHumidityPressure
High106 °F (Apr 18, 3:40 PM)89% (Apr 21, 2:40 AM)29.95 "Hg (Apr 21, 2:40 AM)
Low79 °F (Apr 16, 5:40 AM)25% (Apr 18, 3:40 PM)29.68 "Hg (Apr 12, 3:40 PM)
Average91 °F57%29.81 "Hg
* Reported Apr 8 12:40 PM — Apr 23 12:40 PM, Karaikudi, Weather by CustomWeather, © 2014

Note: Actual official high and low records may vary slightly from our data, if they occured in-between our weather recording intervals... More about our weather records

Advertising

Historic Weather Conditions — Data for Previous 24 hours

 ConditionsComfort  
Time TempWeatherWind HumidityBarometerVisibility
12:40 PM
Apr 23
99 °FScattered clouds.5 mph44%29.83 "Hg3 mi
10:40 AM93 °FScattered clouds.2 mph56%29.89 "Hg2 mi
9:40 AM91 °FScattered clouds.6 mph59%29.89 "Hg2 mi
8:40 AM88 °FHaze.5 mph70%29.89 "Hg2 mi
7:40 AM84 °FScattered clouds.3 mph74%29.86 "Hg2 mi
6:40 AM82 °FScattered clouds.5 mph79%29.83 "Hg2 mi
2:40 AM82 °FPassing clouds.5 mph79%29.83 "Hg4 mi
1:40 AM82 °FPassing clouds.No wind79%29.83 "Hg4 mi
12:40 AM82 °FPassing clouds.3 mph74%29.86 "Hg4 mi
11:40 PM
Apr 22
84 °FPassing clouds.7 mph70%29.89 "Hg4 mi
10:40 PM86 °FPassing clouds.7 mph62%29.89 "Hg4 mi
9:40 PM90 °FPassing clouds.12 mph55%29.89 "Hg4 mi
8:40 PM90 °FPassing clouds.14 mph55%29.86 "Hg4 mi
7:40 PM91 °FPassing clouds.12 mph46%29.83 "Hg4 mi
6:40 PM97 °FPassing clouds.9 mph37%29.80 "Hg4 mi
5:40 PM99 °FPassing clouds.10 mph33%29.77 "Hg5 mi
4:40 PM99 °FPassing clouds.9 mph37%29.77 "Hg5 mi
3:40 PM100 °FPassing clouds.7 mph35%29.77 "Hg5 mi
2:40 PM100 °FPassing clouds.8 mph35%29.80 "Hg4 mi
Weather by CustomWeather, © 2014

See weather overview